Zurück zum Katalog

FENGYUN 1C DEB

AktivSSO
NORAD 31882·DEBRIS·🇨🇳 China

Gestartet May 10, 1999 von Taiyuan Satellite Launch Center

Loading…

Nächste Überflüge (nächste 24 Stunden)

TLE

AktuellSource: Space-Track

Epoche: Sep 14, 2026, 12:53 UTC

1 31882U 99025CKH 26257.53734620  .00000679  00000-0  38175-3 0  9998
2 31882  98.9209 184.2038 0035560 161.8030 198.4423 14.13541410625328

Verfolge FENGYUN 1C DEB in Echtzeit mit AllMySat

Download on the App Store